Theta_e
321 321 321 321 322 320 319 319 319 320 319 318 319 317 316 317 314 300 294 301 308 317 317 307 301 300 301 298 298 295 286 283 284 286 287 291 290 293 293 294 295 298 298 304 311
321 321 321 321 322 320 318 319 319 319 319 317 317 315 316 314 301 296 303 313 314 315 302 297 296 299 295 295 295 289 284 285 287 285 286 289 290 289 290 290 293 302 307 310 309
321 321 321 321 321 320 318 318 319 319 318 316 315 315 315 307 295 294 310 313 313 310 304 299 297 298 292 293 292 289 287 289 288 289 289 290 288 289 288 287 291 298 304 306 305
320 320 320 321 320 321 318 318 318 318 316 316 315 315 314 300 288 296 316 314 317 307 299 296 294 291 290 289 292 288 290 291 291 291 289 288 289 287 287 289 293 301 307 306 305
319 320 319 320 320 321 318 317 317 317 317 315 314 314 302 291 290 299 313 307 302 300 296 294 291 290 288 290 291 287 289 291 290 290 288 289 286 286 286 288 295 304 305 305 305
319 319 319 319 319 320 319 317 317 317 315 314 313 311 296 288 297 300 301 301 300 299 295 295 292 292 289 288 288 289 290 289 290 290 290 287 286 287 286 289 293 302 302 303 304
319 318 318 318 318 319 318 317 316 316 314 313 311 298 292 290 296 298 300 300 301 299 296 296 296 292 291 288 291 290 286 287 289 290 289 289 286 285 287 289 289 292 294 300 302
318 318 317 318 316 317 316 316 315 313 312 311 312 295 287 296 295 300 300 300 302 302 299 299 299 295 292 291 290 286 285 281 287 289 290 288 283 287 287 287 287 288 290 292 292
318 317 317 317 315 316 316 316 314 315 315 310 298 293 287 302 296 299 299 298 300 300 299 300 298 292 293 288 284 285 279 281 285 289 287 287 283 288 288 288 287 287 289 290 291
318 317 317 314 316 316 316 315 312 308 301 299 297 294 295 293 296 298 299 299 299 299 298 296 294 287 285 284 277 280 279 284 283 286 285 284 284 285 286 287 285 286 287 289 290
318 317 316 315 316 315 309 303 301 293 294 289 290 292 293 296 299 297 299 297 299 295 287 292 285 279 282 284 285 284 283 281 284 286 282 282 281 283 284 284 284 284 286 288 289
317 317 315 314 314 314 305 296 294 294 288 294 293 294 295 295 293 295 299 293 292 287 293 287 281 286 288 288 286 285 281 280 283 285 282 280 280 282 284 283 284 285 285 287 288
316 313 312 311 312 302 296 296 301 298 288 291 292 292 293 295 290 291 295 293 288 286 285 284 285 289 287 283 284 280 280 278 279 281 282 279 278 280 283 284 284 285 285 286 287
313 310 311 313 304 298 296 301 301 298 278 285 290 291 294 294 290 296 295 292 288 283 285 283 287 287 283 281 283 281 282 281 280 274 272 278 271 278 280 281 282 283 282 283 285
312 311 311 309 298 295 298 301 299 295 268 285 288 296 294 290 290 291 294 292 285 283 284 282 282 282 281 281 283 280 282 280 278 271 270 272 266 273 279 278 280 280 282 282 283
310 309 309 302 298 297 301 300 295 279 267 278 288 287 285 288 289 291 291 292 290 285 283 281 285 283 282 283 282 282 279 279 277 270 264 265 267 272 276 279 279 281 281 283 283
308 308 305 302 294 300 299 293 278 272 279 277 281 284 282 282 284 286 284 282 281 275 275 280 280 283 284 280 282 280 272 264 265 265 265 261 268 275 279 280 281 280 281 282 283
309 305 301 298 297 296 293 283 271 271 274 285 284 283 280 282 282 283 281 277 282 280 274 271 270 278 282 280 279 277 272 265 258 264 267 261 266 275 278 280 281 282 282 283 283
309 299 295 296 297 296 287 273 272 277 284 283 283 276 275 281 279 279 278 277 280 279 273 270 273 280 280 280 279 275 267 275 262 255 261 266 271 278 278 277 279 280 281 281 282
298 294 292 297 295 290 281 275 274 284 285 284 279 278 269 273 277 275 276 281 280 281 279 277 268 274 280 280 278 276 277 268 265 260 257 263 260 272 271 273 274 278 278 279 281
294 286 294 296 291 284 275 268 276 286 287 283 280 274 278 274 277 274 276 280 281 280 281 276 270 271 277 269 269 270 268 269 270 270 264 259 268 272 273 275 275 276 278 275 276
290 281 293 292 282 270 271 273 286 284 286 284 282 281 278 278 277 271 277 279 282 280 278 279 276 267 271 276 277 276 272 275 269 265 266 268 269 274 273 270 272 275 276 275 273
283 283 291 289 275 269 275 277 283 282 282 282 281 282 281 273 271 278 278 283 284 281 279 280 269 262 270 272 275 272 276 276 271 274 266 267 270 268 265 267 270 274 274 275 271
285 278 280 283 279 278 274 275 277 284 283 283 283 283 280 272 278 271 278 282 283 282 288 284 276 268 268 268 268 268 273 276 272 263 268 269 275 276 270 274 273 273 273 269 267
282 277 279 273 276 278 280 279 278 276 282 283 279 281 277 271 274 269 278 280 282 285 282 279 267 272 272 268 268 270 271 271 270 273 269 275 270 276 270 275 278 279 270 270 272
281 279 278 274 281 280 281 279 278 278 281 279 276 280 280 271 277 275 278 279 278 280 279 279 266 267 264 273 274 269 275 273 273 274 269 274 274 280 268 263 267 273 273 271 274
285 285 284 280 280 277 278 279 280 280 281 283 281 280 279 280 281 281 281 281 280 278 278 272 265 261 262 265 264 263 267 272 269 265 272 267 275 269 266 265 268 272 271 273 273
Wind_Speed
9 10 11 12 12 12 13 13 12 11 9 8 7 6 7 7 6 4 5 4 6 12 10 6 3 2 2 2 3 4 5 0 1 1 2 4 2 5 4 4 5 5 3 3 10
9 9 10 12 13 13 12 13 13 10 8 7 6 7 7 6 2 6 3 9 8 8 3 6 2 3 3 2 3 5 4 3 2 1 0 2 2 4 2 1 4 4 6 9 11
8 8 9 10 12 14 13 13 13 10 7 5 5 6 7 4 3 3 7 10 7 3 2 2 2 1 2 2 1 2 4 4 2 1 1 4 2 4 2 2 5 6 8 6 6
7 8 10 9 11 13 14 13 12 10 7 5 4 6 6 2 2 3 11 10 8 4 2 1 1 2 3 2 0 4 2 2 2 2 1 1 5 3 0 2 2 11 12 6 7
7 7 8 10 10 13 13 14 12 9 7 7 5 5 1 5 1 5 11 8 3 3 2 2 2 1 4 3 2 2 2 2 2 1 1 2 2 3 1 1 4 8 8 8 7
7 7 7 9 11 13 14 14 12 9 7 7 6 4 1 2 4 7 8 4 4 4 3 4 1 1 4 2 3 2 3 3 1 0 1 1 2 3 2 5 7 8 8 8 9
7 7 6 7 11 14 14 14 12 9 7 6 6 2 7 1 4 7 7 3 3 2 1 1 1 1 1 3 1 4 3 1 3 4 2 1 1 4 4 6 7 9 7 7 8
7 7 6 7 11 14 14 14 11 8 8 5 3 3 3 2 3 5 7 3 5 2 2 2 2 3 4 1 4 2 4 1 1 6 1 1 2 1 1 4 5 3 5 6 6
6 5 5 7 10 13 14 14 9 8 8 6 3 3 2 1 4 6 4 4 6 2 2 3 3 4 4 3 4 6 2 2 2 3 4 1 2 6 6 7 7 6 5 5 6
4 3 4 8 10 13 15 10 7 6 5 1 2 3 5 4 4 5 3 3 3 3 2 5 5 4 5 5 3 3 0 2 2 4 5 1 1 4 7 8 7 6 5 6 6
2 2 5 8 11 13 8 3 3 6 9 3 4 1 3 7 3 6 4 5 4 6 3 4 8 3 1 2 1 2 1 0 1 3 2 1 2 2 3 6 6 5 4 4 5
5 3 4 7 10 12 1 5 3 1 6 4 1 2 1 2 4 9 8 4 6 3 4 7 4 3 3 4 4 5 2 2 3 3 3 2 5 2 2 2 5 6 4 4 3
4 3 5 6 7 6 5 4 3 3 4 4 2 3 4 5 3 7 6 2 6 6 6 5 1 5 3 6 5 4 2 3 2 7 2 6 5 3 1 4 4 4 3 4 4
5 4 8 10 5 0 3 6 3 1 7 10 7 5 4 4 4 2 3 2 6 3 3 5 5 4 5 5 3 1 3 2 4 5 3 5 6 6 6 4 2 3 4 4 4
5 5 6 11 3 4 3 5 3 4 7 8 7 3 5 5 3 7 2 6 4 2 4 3 5 6 7 3 3 1 3 3 3 4 4 6 5 8 5 6 5 4 4 4 4
7 6 4 5 4 1 5 4 3 9 2 6 4 6 4 7 5 6 4 6 4 4 6 3 2 4 1 2 3 2 3 6 4 4 4 4 5 8 6 8 5 4 5 6 5
8 12 6 2 1 5 3 4 8 8 4 6 3 4 2 4 4 6 4 5 3 5 4 5 3 3 4 1 3 6 6 5 7 5 7 2 1 13 6 5 10 10 8 6 5
7 6 4 3 2 2 4 8 10 3 5 3 3 2 4 6 4 7 3 3 6 4 3 4 7 3 5 2 2 3 6 7 6 2 6 3 7 8 3 2 7 7 7 6 5
4 3 3 5 5 2 7 8 8 6 3 4 3 6 6 4 2 5 5 1 1 3 5 4 4 1 3 2 3 2 1 3 8 2 5 4 9 8 4 3 5 7 6 6 6
2 3 2 7 3 5 8 3 2 1 3 1 2 3 1 5 4 5 3 3 2 2 3 3 4 2 3 1 2 4 2 5 4 2 6 7 8 9 6 10 5 8 9 8 6
4 4 4 6 4 8 5 5 2 3 2 3 1 1 0 1 1 2 1 1 2 1 2 4 5 5 3 4 7 2 2 4 4 5 6 3 9 8 10 12 15 10 9 9 8
3 4 4 3 7 2 3 5 3 1 2 2 2 3 5 2 0 0 2 6 1 4 1 0 4 3 10 1 1 2 4 5 6 7 3 2 13 4 7 7 9 10 9 8 6
3 2 3 4 4 2 4 2 1 1 0 1 2 0 3 4 2 3 2 0 1 2 3 3 2 4 10 5 5 2 5 5 2 3 8 4 11 3 4 6 8 10 9 8 5
5 3 6 6 1 7 4 2 1 2 2 1 0 1 2 4 1 2 2 0 1 1 1 1 2 8 9 9 4 3 6 6 6 4 4 10 23 13 3 7 6 11 9 5 5
4 2 5 2 4 2 2 4 2 0 1 1 4 2 4 0 3 2 3 2 0 2 1 4 5 3 7 6 4 7 12 7 11 14 10 25 11 18 7 9 11 11 5 6 8
5 5 3 3 0 3 1 5 6 3 4 2 4 2 5 5 5 4 2 2 4 1 2 2 4 2 7 3 3 6 18 14 17 16 11 22 26 19 6 2 3 10 9 9 8
1 2 4 3 3 4 4 4 4 4 2 1 4 3 3 5 3 3 4 3 2 5 5 3 4 4 8 4 5 8 12 14 6 5 8 10 20 3 4 6 7 9 8 11 10
Wind_Direction
3 3 1 2 2 359 354 350 350 346 346 348 335 335 341 345 323 33 42 285 305 315 321 284 298 304 17 33 38 75 61 168 26 174 173 343 126 337 304 82 41 359 129 178 121
347 352 357 356 352 353 355 349 345 349 345 354 347 339 341 352 66 57 261 315 311 319 357 25 34 359 29 27 9 87 106 194 219 216 253 317 83 318 85 20 40 29 19 100 124
331 340 346 353 349 347 348 350 345 348 350 353 342 334 334 328 83 326 316 326 321 333 256 307 294 221 101 98 73 149 167 164 257 257 318 314 2 309 97 360 200 178 162 138 131
319 329 334 346 349 343 343 346 344 342 342 333 338 332 329 320 193 294 328 328 315 297 319 314 55 79 104 134 8 94 20 122 200 324 31 331 305 0 104 241 285 163 158 148 152
304 314 328 337 343 339 341 343 338 337 332 321 335 343 57 44 347 312 325 333 358 324 45 61 92 113 127 150 92 99 166 92 162 60 75 304 305 283 304 179 86 121 143 164 168
294 302 321 329 336 334 334 339 335 332 328 321 335 337 10 80 308 322 326 341 12 9 31 49 106 272 103 83 118 154 113 149 134 64 2 340 256 20 256 140 119 146 176 185 185
271 282 309 324 338 331 328 333 338 327 320 328 347 29 59 144 333 320 339 311 334 355 61 43 326 94 67 103 185 130 98 65 7 340 244 148 18 233 193 146 158 179 193 200 213
255 268 305 335 339 320 324 329 331 325 312 320 340 69 83 294 301 333 342 323 358 321 69 306 342 90 59 89 38 72 43 71 321 357 334 70 243 299 107 135 172 89 95 100 50
242 268 316 339 329 315 320 322 311 301 299 313 50 83 67 91 19 315 350 336 297 336 350 292 58 72 35 69 28 14 192 212 312 64 311 166 185 329 357 99 78 100 74 71 46
238 267 334 334 323 314 319 310 301 344 333 40 41 44 18 329 295 315 308 303 21 333 19 47 48 69 29 61 212 241 211 268 253 346 353 304 276 349 22 97 107 99 80 65 45
195 15 348 325 321 328 341 8 34 352 41 76 313 81 342 303 286 351 353 336 5 46 61 19 66 79 317 319 278 277 266 312 288 9 343 345 285 265 89 88 109 108 94 75 50
104 54 331 326 329 330 20 68 46 163 72 17 10 43 332 339 0 347 358 57 51 68 358 27 85 306 305 355 72 42 73 310 305 360 352 43 280 233 165 127 156 141 109 76 37
79 55 335 325 329 40 71 54 342 2 89 11 23 18 316 7 44 328 11 73 65 45 17 99 8 325 66 29 51 38 42 357 260 326 14 346 313 198 55 102 97 66 86 61 64
65 18 348 328 71 152 56 327 347 37 79 328 346 359 346 348 31 297 2 92 34 142 60 71 332 36 56 67 31 100 345 11 13 44 247 28 277 264 208 186 131 92 85 88 61
12 356 8 39 134 57 312 323 329 59 59 307 315 275 314 65 296 347 340 28 76 65 81 271 16 26 51 360 357 112 36 44 84 88 50 343 69 266 143 229 204 178 137 97 66
29 356 26 29 52 2 326 335 52 45 287 332 309 348 15 8 7 315 32 49 144 82 37 101 62 56 86 35 45 40 49 34 56 79 21 256 125 276 191 206 184 185 168 141 116
56 43 51 46 51 324 342 48 39 92 338 300 327 9 105 344 2 25 26 24 72 62 354 360 18 346 31 55 30 57 49 335 353 8 224 302 25 243 241 203 179 167 167 156 137
24 53 61 83 322 1 63 48 67 245 242 332 322 1 45 351 12 348 51 53 32 65 106 116 331 19 354 69 163 85 136 153 217 241 269 3 242 256 295 90 119 132 150 146 138
5 6 36 332 346 60 74 53 191 200 312 349 5 54 328 357 97 46 31 44 8 34 125 99 297 345 39 0 76 250 60 149 100 42 41 262 294 298 78 61 134 160 162 167 171
70 52 322 316 6 65 69 171 173 283 356 3 115 126 217 300 14 50 352 313 335 15 111 169 4 253 276 146 13 145 140 42 3 339 301 292 277 246 241 218 224 199 197 195 197
48 51 268 337 53 47 108 207 243 250 38 28 69 28 291 300 344 313 251 300 14 15 81 130 99 290 30 196 180 46 341 41 128 149 191 272 263 214 216 197 203 209 204 199 210
92 46 312 21 51 44 101 190 250 282 28 166 159 138 171 145 304 353 260 192 345 145 154 241 141 241 226 307 93 142 183 162 136 258 255 188 266 198 208 217 201 214 213 206 209
82 248 326 75 102 340 308 310 244 285 229 164 148 175 124 168 48 222 235 201 284 178 187 171 305 355 339 12 0 197 218 203 72 49 218 163 271 321 304 295 250 221 223 217 195
96 35 333 45 54 127 143 242 294 324 303 8 77 75 135 24 44 245 271 271 184 193 173 127 195 175 203 206 147 194 236 214 137 147 227 220 262 276 323 268 243 230 235 254 241
30 222 175 283 330 82 115 133 138 258 296 93 355 213 162 36 342 261 244 275 182 267 117 122 213 223 264 192 170 211 241 192 196 224 204 265 255 264 226 230 228 225 193 225 250
121 125 352 157 244 136 65 214 174 253 153 225 155 190 176 175 202 227 207 244 238 11 173 48 272 77 290 358 201 237 256 228 229 247 266 262 280 281 238 289 248 223 197 218 232
190 39 97 307 114 89 230 176 204 140 230 59 174 145 224 247 217 264 271 289 269 173 200 131 117 53 264 351 336 314 234 210 194 215 198 218 247 251 278 253 243 240 201 215 224